[[{"header":{"parameterUnit":"m.s-1","parameterCategory":1,"la1":30.2991,"la2":30.254,"lo1":-89.0895,"lo2":-89.0444,"dy":0.0017,"dx":0.0017,"nx":28,"ny":28,"refTime":"2024-12-01T09:00:00:Z","depth":0,"parameterNumber":2,"parameterNumberName":"U-component_of_WINDS"},"data":[0,0,0,0,0,0,0,0,0,0,0,0,0,0,0,0,0,0,0,0,0,0,0,0,0,0,0,0,0,0,0,0,0,0,0,0,0,0,0,0,0,0,0,0,0,0,0,0,0,0,0,0,0,0,0,0,0,0,0.5025,0.5025,0,0.5017,0.5017,0.5017,0.5033,0.5033,0.5034,0.5034,0.5024,0.5023,0.5022,0,0,0,0,0,0,0,0,0,0,0,0,0,0.5052,0.5051,0.5025,0.5025,0.5025,0.5017,0.5017,0.5017,0.5033,0.5033,0.5034,0.5035,0.5024,0.5023,0.5022,0,0,0,0,0,0,0,0,0,0,0,0,0,0.5042,0.5051,0.5025,0.5032,0.5032,0.5017,0.5017,0.5017,0.5033,0.5033,0.5034,0.5035,0.5024,0.5023,0.5022,0.4999,0,0,0.5019,0.5018,0,0,0,0,0,0,0,0,0.5042,0.5041,0.5031,0.5031,0.5032,0.5027,0.5023,0.5011,0.5032,0.5032,0.5034,0.5035,0.5024,0.5023,0.502,0.4999,0.4998,0.5018,0.5018,0.5017,0.5017,0,0,0,0,0,0,0,0.5043,0.5041,0.5022,0.5031,0.5031,0.5035,0.5034,0.5021,0.5024,0.5032,0.5034,0.5033,0.5024,0.5021,0.5019,0.4998,0.5019,0.5017,0.5017,0.5016,0.4959,0.4959,0,0,0,0,0,0,0.5043,0.5042,0.5022,0.5021,0.5039,0.5034,0.5033,0.5027,0.5024,0.5024,0.5032,0.5033,0.5022,0.5021,0.5019,0.4993,0.5017,0.5016,0.5016,0.496,0.4959,0.4958,0,0,0,0,0,0,0.5044,0.5041,0.5022,0.5032,0.503,0.5032,0.5026,0.5027,0.5023,0.5024,0.5024,0.5028,0.5023,0.5021,0.5005,0.4993,0.5016,0.5015,0.4961,0.496,0.4959,0.4939,0,0,0,0,0,0,0.5044,0.5041,0.5033,0.5032,0.5029,0.5008,0.5025,0.5026,0.5022,0.5023,0.502,0.502,0.5023,0.5006,0.5003,0.4991,0.5014,0.4962,0.4961,0.4959,0.4941,0.4938,0.4935,0,0,0,0,0,0.5045,0.5027,0.5032,0.503,0.5019,0.5007,0.5006,0.5011,0.5021,0.5012,0.5012,0.502,0.4995,0.5004,0.5001,0.4989,0.4963,0.4961,0.4959,0.4942,0.4938,0.4935,0,0,0,0,0,0,0.5025,0.5026,0.5033,0.5013,0.501,0.501,0.4999,0.5006,0.4999,0.5001,0.5007,0.5006,0.4989,0.4987,0.4998,0.4967,0.498,0.4978,0.4969,0.4965,0.4961,0.4962,0.5013,0,0,0,0,0,0.5018,0.5009,0.5011,0.4994,0.4992,0.4996,0.4991,0.4996,0.4992,0.499,0.499,0.4986,0.4977,0.4971,0.4963,0.4941,0.4941,0.4931,0.4928,0.4926,0.4923,0.4913,0.4908,0.4952,0.4952,0.4952,0,0,0.5004,0.5004,0.4998,0.499,0.4988,0.4978,0.4994,0.4983,0.4976,0.4988,0.4973,0.4973,0.4969,0.495,0.4942,0.4948,0.4911,0.4923,0.4921,0.492,0.491,0.4906,0.4902,0.4951,0.4951,0.4952,0,0,0.4973,0.4972,0.4958,0.4957,0.4954,0.4957,0.4954,0.4953,0.4954,0.4939,0.4948,0.494,0.4925,0.4922,0.4918,0.4889,0.4896,0.4886,0.4869,0.4859,0.4855,0.4852,0.4842,0.4838,0.4884,0.4884,0.4884,0,0.4955,0.4942,0.495,0.4939,0.4935,0.4948,0.4933,0.4931,0.4926,0.4923,0.4931,0.4913,0.4911,0.4892,0.4885,0.4882,0.4879,0.4886,0.4855,0.4852,0.4849,0.484,0.4836,0.4883,0.4883,0.4883,0.4883,0,0.492,0.4911,0.49,0.4896,0.4891,0.4878,0.4884,0.4879,0.4884,0.4887,0.4872,0.4871,0.4863,0.4859,0.4864,0.4841,0.4846,0.4854,0.4867,0.4844,0.4835,0.4831,0.4881,0.4881,0.4882,0.4882,0,0,0.4874,0.4877,0.4872,0.4871,0.4871,0.4863,0.4852,0.4845,0.4841,0.4837,0.4827,0.4815,0.4824,0.482,0.4825,0.4816,0.4793,0.4826,0.4826,0.482,0.4769,0.4762,0.4758,0.4799,0.4798,0.4797,0.477,0,0.4844,0.4824,0.4832,0.4812,0.4804,0.4817,0.4807,0.4805,0.4807,0.4801,0.4803,0.4794,0.4806,0.4804,0.4796,0.4798,0.4783,0.48,0.4789,0.4789,0.4789,0.4753,0.4745,0.4719,0.4766,0.4766,0.4765,0,0.4805,0.4802,0.4781,0.4783,0.478,0.4771,0.4767,0.476,0.4759,0.4761,0.4758,0.4766,0.4754,0.4769,0.4754,0.4765,0.4761,0.4762,0.4761,0.4759,0.4775,0.475,0.4711,0.4707,0.476,0.476,0.476,0,0.4773,0.4764,0.475,0.4749,0.4751,0.4745,0.4745,0.4745,0.4741,0.4738,0.4735,0.473,0.4727,0.4723,0.4729,0.4739,0.4713,0.4728,0.4714,0.4714,0.4707,0.4707,0.4666,0.4706,0.4706,0.4706,0.4706,0,0.4738,0.4725,0.4736,0.4728,0.4714,0.4723,0.4709,0.4711,0.4711,0.4703,0.4714,0.4707,0.4716,0.4709,0.4714,0.4701,0.4699,0.4701,0.4702,0.4699,0.4699,0.4696,0.4698,0.4705,0.4705,0.4706,0.4706,0,0.4699,0.4707,0.4693,0.4697,0.4698,0.4687,0.4691,0.4683,0.4688,0.4678,0.4676,0.4682,0.4675,0.4681,0.4674,0.4677,0.466,0.4664,0.4661,0.4662,0.4648,0.4649,0.4603,0.4598,0.4641,0.4641,0.464,0,0.4676,0.4666,0.467,0.4666,0.4667,0.466,0.4657,0.4667,0.4663,0.4662,0.4655,0.4649,0.4645,0.4634,0.4637,0.4632,0.4636,0.462,0.4635,0.4633,0.4636,0.4636,0.4635,0.4617,0.4616,0.4616,0.4615,0,0.4633,0.4638,0.4634,0.4631,0.4627,0.4625,0.4624,0.462,0.463,0.4625,0.4619,0.4616,0.461,0.4604,0.4601,0.4601,0.461,0.4611,0.4608,0.4604,0.4603,0.4604,0.4652,0.4612,0.4612,0.4612,0.4612,0.4613,0.4601,0.4594,0.4596,0.4591,0.4592,0.4591,0.4585,0.4589,0.4584,0.458,0.4586,0.4579,0.458,0.4576,0.4576,0.457,0.4577,0.4572,0.457,0.4569,0.4567,0.4605,0.4569,0.457,0.457,0.457,0.457,0,0.4559,0.4562,0.4558,0.4556,0.4553,0.4563,0.4563,0.4559,0.4552,0.4553,0.4549,0.4543,0.4538,0.4542,0.4538,0.4533,0.4537,0.4531,0.4531,0.4531,0.4561,0.4564,0.4528,0.4528,0.4528,0.4528,0.4528,0.4528,0.4537,0.4525,0.4531,0.452,0.4522,0.4516,0.4515,0.4514,0.4515,0.4507,0.4504,0.4507,0.4509,0.4506,0.4502,0.4504,0.4502,0.4495,0.4498,0.4525,0.4529,0.4533,0.4536,0.4494,0.4494,0.4468,0.4468,0.4468]},{"header":{"parameterUnit":"m.s-1","parameterCategory":1,"la1":30.2991,"la2":30.254,"lo1":-89.0895,"lo2":-89.0444,"dy":0.0017,"dx":0.0017,"nx":28,"ny":28,"refTime":"2024-12-01T09:00:00:Z","depth":0,"parameterNumber":3,"parameterNumberName":"V-component_of_WINDS"},"data":[0,0,0,0,0,0,0,0,0,0,0,0,0,0,0,0,0,0,0,0,0,0,0,0,0,0,0,0,0,0,0,0,0,0,0,0,0,0,0,0,0,0,0,0,0,0,0,0,0,0,0,0,0,0,0,0,0,0,-4.6796,-4.6798,0,-4.6939,-4.694,-4.6942,-4.6876,-4.6873,-4.6869,-4.6866,-4.7009,-4.7016,-4.7023,0,0,0,0,0,0,0,0,0,0,0,0,0,-4.6464,-4.647,-4.6796,-4.6798,-4.68,-4.6939,-4.6941,-4.6942,-4.6877,-4.6872,-4.6868,-4.6864,-4.7007,-4.7015,-4.7024,0,0,0,0,0,0,0,0,0,0,0,0,0,-4.6607,-4.6472,-4.6796,-4.6784,-4.6784,-4.6938,-4.6941,-4.6943,-4.6878,-4.6872,-4.6867,-4.6862,-4.7004,-4.7014,-4.7025,-4.7198,0,0,-4.7057,-4.7062,0,0,0,0,0,0,0,0,-4.6599,-4.662,-4.6784,-4.6785,-4.6785,-4.6884,-4.6876,-4.7029,-4.6879,-4.6842,-4.6866,-4.6859,-4.6972,-4.6985,-4.7023,-4.7205,-4.7211,-4.7058,-4.7065,-4.707,-4.7073,0,0,0,0,0,0,0,-4.659,-4.6613,-4.6852,-4.6786,-4.6787,-4.677,-4.6785,-4.6905,-4.6935,-4.6845,-4.684,-4.6858,-4.6971,-4.7013,-4.7026,-4.7213,-4.7058,-4.7068,-4.7074,-4.7078,-4.7545,-4.7551,0,0,0,0,0,0,-4.658,-4.6605,-4.6848,-4.6857,-4.6677,-4.6781,-4.6797,-4.6858,-4.6934,-4.694,-4.6863,-4.6855,-4.6997,-4.7014,-4.7031,-4.724,-4.7069,-4.708,-4.7086,-4.7539,-4.7546,-4.7553,0,0,0,0,0,0,-4.6573,-4.6602,-4.6842,-4.673,-4.6759,-4.6792,-4.6861,-4.6864,-4.6905,-4.6947,-4.6952,-4.69,-4.6994,-4.7016,-4.7157,-4.7244,-4.7084,-4.7094,-4.7532,-4.7541,-4.755,-4.7658,0,0,0,0,0,0,-4.6564,-4.66,-4.6667,-4.6732,-4.6765,-4.6968,-4.6866,-4.687,-4.6924,-4.6915,-4.6984,-4.699,-4.6991,-4.7142,-4.7168,-4.7255,-4.7102,-4.7524,-4.7536,-4.7547,-4.7647,-4.767,-4.7689,0,0,0,0,0,-4.6552,-4.6691,-4.6671,-4.6701,-4.685,-4.6973,-4.6992,-4.6991,-4.6932,-4.6999,-4.7026,-4.6988,-4.723,-4.7157,-4.7186,-4.7278,-4.7519,-4.7533,-4.7546,-4.7638,-4.7665,-4.7689,0,0,0,0,0,0,-4.6635,-4.67,-4.6678,-4.6842,-4.6903,-4.6961,-4.7046,-4.7021,-4.7098,-4.7087,-4.7082,-4.7098,-4.7245,-4.7275,-4.7193,-4.745,-4.7365,-4.7385,-4.7425,-4.7452,-4.7472,-4.7462,-4.7111,0,0,0,0,0,-4.6672,-4.6768,-4.6818,-4.6958,-4.699,-4.7013,-4.7067,-4.7061,-4.7123,-4.7148,-4.7185,-4.7246,-4.7336,-4.7395,-4.748,-4.7651,-4.7665,-4.7728,-4.7749,-4.7766,-4.7784,-4.7877,-4.7906,-4.7597,-4.7597,-4.7596,0,0,-4.675,-4.6797,-4.6858,-4.6976,-4.7022,-4.7121,-4.7035,-4.7142,-4.7215,-4.7164,-4.7301,-4.733,-4.7398,-4.7555,-4.7626,-4.7585,-4.7872,-4.7783,-4.7797,-4.7805,-4.7894,-4.7923,-4.7949,-4.7606,-4.7604,-4.7603,0,0,-4.6943,-4.6988,-4.711,-4.7158,-4.723,-4.7245,-4.7274,-4.7337,-4.7355,-4.7493,-4.7457,-4.7542,-4.7697,-4.7747,-4.7793,-4.8005,-4.7973,-4.8032,-4.8143,-4.8233,-4.8258,-4.8279,-4.8355,-4.8383,-4.8049,-4.805,-4.805,0,-4.7031,-4.7178,-4.7176,-4.7287,-4.734,-4.7299,-4.7423,-4.7469,-4.7565,-4.7602,-4.7554,-4.7748,-4.7791,-4.796,-4.8012,-4.805,-4.8083,-4.8025,-4.8255,-4.8276,-4.8296,-4.8369,-4.8397,-4.8057,-4.8056,-4.8055,-4.8054,0,-4.7283,-4.7385,-4.7475,-4.757,-4.7633,-4.7749,-4.7764,-4.7828,-4.7817,-4.7837,-4.7977,-4.8027,-4.8121,-4.8161,-4.8151,-4.8329,-4.8301,-4.8254,-4.8169,-4.8333,-4.8401,-4.8428,-4.8066,-4.8064,-4.8062,-4.806,0,0,-4.7531,-4.7624,-4.7657,-4.7699,-4.7776,-4.7855,-4.7969,-4.8063,-4.8118,-4.8185,-4.8281,-4.8413,-4.8371,-4.8423,-4.8417,-4.8497,-4.8663,-4.8441,-4.8442,-4.8481,-4.8862,-4.8898,-4.893,-4.8642,-4.8647,-4.8651,-4.8857,0,-4.773,-4.7932,-4.7933,-4.8119,-4.8214,-4.8177,-4.8276,-4.8334,-4.8355,-4.8438,-4.846,-4.8555,-4.8491,-4.8522,-4.86,-4.8627,-4.874,-4.8611,-4.8731,-4.8735,-4.8716,-4.8965,-4.9003,-4.9195,-4.8884,-4.8888,-4.8891,0,-4.7989,-4.8066,-4.8261,-4.8324,-4.8364,-4.8454,-4.854,-4.862,-4.8684,-4.8694,-4.8753,-4.8736,-4.8851,-4.8763,-4.8922,-4.8835,-4.8884,-4.8904,-4.8912,-4.8923,-4.8823,-4.8984,-4.9256,-4.9285,-4.8933,-4.893,-4.8927,0,-4.8151,-4.8304,-4.844,-4.8478,-4.8555,-4.8619,-4.8654,-4.8713,-4.8769,-4.8844,-4.8881,-4.8968,-4.9015,-4.9083,-4.909,-4.9024,-4.9251,-4.9162,-4.9262,-4.9262,-4.9311,-4.9308,-4.9595,-4.9342,-4.9341,-4.9341,-4.934,0,-4.8373,-4.8495,-4.8515,-4.8599,-4.8734,-4.8734,-4.8867,-4.8896,-4.8949,-4.9037,-4.901,-4.9094,-4.9097,-4.9183,-4.9189,-4.932,-4.9342,-4.9352,-4.9353,-4.9356,-4.9354,-4.9388,-4.9375,-4.9348,-4.9347,-4.9345,-4.9344,0,-4.8578,-4.8596,-4.8743,-4.8805,-4.8823,-4.8919,-4.8971,-4.9051,-4.907,-4.9183,-4.9209,-4.9238,-4.9337,-4.9351,-4.9467,-4.947,-4.9629,-4.9614,-4.9608,-4.9606,-4.9705,-4.9696,-5.0024,-5.0067,-4.9785,-4.9788,-4.979,0,-4.8719,-4.8812,-4.8883,-4.8941,-4.898,-4.9074,-4.9132,-4.9135,-4.9196,-4.9277,-4.9347,-4.9444,-4.9522,-4.9682,-4.9713,-4.9801,-4.9789,-4.9898,-4.9802,-4.9802,-4.9792,-4.9786,-4.9796,-4.9917,-4.992,-4.9922,-4.9924,0,-4.8967,-4.8972,-4.9057,-4.9146,-4.9216,-4.9286,-4.9352,-4.9401,-4.9412,-4.9482,-4.9584,-4.9645,-4.9764,-4.986,-4.9948,-4.9982,-4.9956,-4.9954,-4.9982,-4.9986,-4.9979,-4.9985,-4.9659,-4.9947,-4.9945,-4.9943,-4.9942,-4.9941,-4.9145,-4.9226,-4.9289,-4.9385,-4.9435,-4.9497,-4.9576,-4.9605,-4.969,-4.9789,-4.9785,-4.9897,-4.9959,-5.0074,-5.0115,-5.0202,-5.0166,-5.0206,-5.0217,-5.0227,-5.0237,-4.9965,-5.0218,-5.0217,-5.0216,-5.0216,-5.0216,0,-4.9392,-4.9432,-4.952,-4.9613,-4.9689,-4.9658,-4.9729,-4.9794,-4.9894,-4.9954,-5.0031,-5.0149,-5.0242,-5.0281,-5.0373,-5.0435,-5.0425,-5.0459,-5.0455,-5.0463,-5.0263,-5.0231,-5.0466,-5.0466,-5.0465,-5.0465,-5.0465,-5.0465,-4.953,-4.9666,-4.9678,-4.9838,-4.9876,-4.9987,-5.003,-5.0087,-5.0136,-5.0268,-5.0347,-5.0371,-5.0423,-5.0518,-5.0603,-5.0611,-5.0646,-5.0686,-5.069,-5.0502,-5.0477,-5.0453,-5.0422,-5.0694,-5.0694,-5.0882,-5.0884,-5.0885]}]]